GW0571 Weather Reports


time (UTC)temp
F
wind
direction
speed
knots
gust
knots
rain 1hr
in
rain 24hr
in
rain mn
in
humidity
%
barometer
mb
20260510105150 46 125 1.7 2.6 0.00 0.07 0.07 96 1010.8
20260510104647 46 100 0.9 1.7 0.00 0.07 0.07 96 1010.6
20260510104144 46 55 0.0 0.9 0.00 0.07 0.07 96 1010.7
20260510103641 46 124 0.9 1.7 0.00 0.07 0.07 96 1010.5
20260510103137 46 109 0.0 2.6 0.00 0.07 0.07 96 1010.6
20260510102632 46 130 1.7 2.6 0.00 0.07 0.07 96 1010.6
20260510102128 45 145 0.0 1.7 0.00 0.07 0.07 96 1010.5
20260510101626 45 117 0.9 1.7 0.00 0.07 0.07 96 1010.1
20260510101124 45 81 0.9 1.7 0.00 0.07 0.07 96 1010.3
20260510100620 45 128 0.0 1.7 0.00 0.07 0.07 96 1010.2
20260510100118 45 87 0.9 1.7 0.00 0.07 0.07 96 1010.3
20260510095613 45 65 0.0 0.9 0.00 0.07 0.07 96 1010.3
20260510095113 46 128 0.0 1.7 0.00 0.07 0.07 96 1010.2
20260510094612 46 89 0.0 1.7 0.00 0.07 0.07 96 1010.0
20260510094108 46 94 1.7 2.6 0.00 0.07 0.07 96 1010.0
20260510093605 45 100 1.7 2.6 0.00 0.07 0.07 96 1010.0
20260510093101 45 78 0.0 1.7 0.00 0.07 0.07 96 1010.1
20260510092558 45 37 1.7 2.6 0.00 0.07 0.07 96 1010.0
20260510092058 45 100 1.7 2.6 0.00 0.07 0.07 96 1010.0
20260510091555 45 101 1.7 1.7 0.00 0.07 0.07 96 1009.7
20260510091051 46 110 0.0 1.7 0.00 0.07 0.07 96 1009.7
20260510090548 46 101 1.7 2.6 0.00 0.07 0.07 96 1009.7
20260510090043 45 101 1.7 2.6 0.00 0.07 0.07 96 1009.7
20260510085538 45 104 1.7 1.7 0.00 0.07 0.07 96 1009.7
20260510085035 45 89 0.9 1.7 0.00 0.07 0.07 96 1009.5
20260510084532 45 101 0.9 1.7 0.00 0.07 0.07 96 1009.3
20260510084029 45 73 0.0 1.7 0.00 0.07 0.07 96 1009.6
20260510083525 45 98 0.0 1.7 0.00 0.07 0.07 96 1009.3
20260510083021 45 111 0.0 1.7 0.00 0.07 0.07 96 1009.6
20260510082518 45 105 1.7 1.7 0.00 0.07 0.07 96 1009.5
20260510082013 45 56 0.9 1.7 0.00 0.07 0.07 96 1009.3
20260510081508 46 77 0.0 1.7 0.00 0.07 0.07 96 1009.5
20260510081005 46 110 0.9 2.6 0.00 0.07 0.07 96 1009.3
20260510080503 46 104 0.9 1.7 0.00 0.07 0.07 96 1009.2
20260510080000 45 101 1.7 1.7 0.00 0.07 0.07 96 1009.1
20260510075458 46 94 1.7 1.7 0.00 0.07 0.07 96 1009.1
20260510074954 46 76 0.9 1.7 0.00 0.07 0.07 96 1009.1
20260510074452 46 87 0.9 1.7 0.00 0.07 0.07 96 1009.1
20260510073948 46 92 1.7 1.7 0.00 0.07 0.07 96 1008.9
20260510073443 46 89 0.9 0.9 0.00 0.07 0.07 96 1009.1
20260510072940 46 117 0.9 1.7 0.00 0.07 0.07 96 1009.0
20260510072437 46 119 0.0 2.6 0.00 0.07 0.07 96 1008.9
20260510071933 46 89 1.7 2.6 0.00 0.07 0.07 96 1009.1
20260510071429 46 93 0.9 1.7 0.00 0.07 0.07 96 1008.9
20260510070927 46 95 1.7 1.7 0.00 0.07 0.07 96 1008.9
20260510070425 47 88 1.7 1.7 0.00 0.07 0.07 96 1009.0
20260510065920 47 103 2.6 2.6 0.00 0.07 0.07 96 1009.0
20260510065417 47 147 0.0 1.7 0.00 0.07 0.07 96 1009.1
20260510064913 47 101 0.9 1.7 0.00 0.07 0.07 96 1008.8
20260510064411 47 92 0.9 0.9 0.02 0.07 0.07 96 1009.1
20260510063907 47 87 0.0 1.7 0.02 0.07 0.07 96 1009.0
20260510063403 48 66 1.7 2.6 0.00 0.06 0.06 96 1009.1
20260510062901 48 98 1.7 2.6 0.02 0.06 0.06 96 1009.1
20260510062356 48 114 1.7 2.6 0.02 0.06 0.06 96 1009.1
20260510061851 48 89 0.0 0.9 0.02 0.06 0.06 96 1009.0
20260510061348 48 89 0.0 2.6 0.05 0.06 0.06 96 1009.1
20260510060844 48 171 0.0 7.0 0.02 0.06 0.06 96 1009.2
20260510060341 48 121 2.6 3.5 0.02 0.05 0.05 96 1009.6
20260510055838 48 202 1.7 1.7 0.05 0.05 0.05 96 1009.5
20260510055336 48 115 2.6 4.3 0.02 0.05 0.05 96 1009.1
20260510054831 48 101 0.0 1.7 0.02 0.04 0.04 96 1009.5
20260510054326 48 183 1.7 1.7 0.05 0.04 0.04 96 1009.6
20260510053822 48 127 1.7 2.6 0.02 0.04 0.04 96 1009.6
20260510053317 48 139 2.6 4.3 0.02 0.04 0.04 96 1009.6
20260510052814 48 184 1.7 3.5 0.02 0.04 0.04 96 1010.0
20260510052310 48 184 1.7 3.5 0.02 0.03 0.03 96 1009.9
20260510051806 48 105 1.7 2.6 0.02 0.03 0.03 96 1010.0
20260510051303 48 124 3.5 3.5 0.02 0.02 0.02 96 1010.2
20260510050800 48 124 3.5 3.5 0.05 0.02 0.02 96 1010.2
20260510050257 49 124 3.5 4.3 0.05 0.02 0.02 96 1010.4
20260510045754 49 135 1.7 3.5 0.05 0.02 0.02 96 1010.5
20260510045250 49 120 2.6 3.5 0.05 0.01 0.01 96 1010.8
20260510044747 49 137 0.9 1.7 0.02 0.01 0.01 95 1010.7
20260510044245 49 109 2.6 3.5 0.02 0.00 0.00 93 1010.6
20260510043740 50 116 2.6 3.5 0.02 0.00 0.00 92 1010.6
20260510043237 50 214 1.7 2.6 0.00 0.00 0.00 90 1010.7
20260510042734 50 253 4.3 5.2 0.00 0.00 0.00 90 1010.7
20260510042229 50 335 1.7 3.5 0.00 0.00 0.00 89 1010.6
20260510041727 51 252 4.3 6.1 0.00 0.00 0.00 88 1010.8
20260510041224 51 304 2.6 5.2 0.00 0.00 0.00 88 1010.7
20260510040721 51 221 2.6 7.8 0.00 0.00 0.00 89 1010.5
20260510040218 51 331 1.7 7.0 0.00 0.00 0.00 90 1010.3
20260510035713 50 246 10.4 13.9 0.00 0.37 0.37 92 1010.4
20260510035209 50 264 4.3 7.8 0.00 0.37 0.37 96 1010.5
20260510034705 50 242 5.2 8.7 0.00 0.37 0.37 96 1010.3
20260510034203 50 331 2.6 12.2 0.00 0.37 0.37 96 1010.2
20260510033659 50 147 0.9 3.5 0.00 0.37 0.37 96 1009.3
20260510033157 49 146 2.6 4.3 0.00 0.37 0.37 96 1009.2
20260510032653 49 176 1.7 2.6 0.00 0.37 0.37 96 1009.1
20260510032149 49 126 1.7 3.5 0.00 0.37 0.37 96 1009.0
20260510031643 49 125 2.6 4.3 0.00 0.37 0.37 96 1008.9
20260510031140 49 128 2.6 3.5 0.00 0.37 0.37 96 1009.1
20260510030635 49 104 1.7 2.6 0.00 0.37 0.37 96 1009.1
20260510030133 49 171 2.6 5.2 0.00 0.37 0.37 96 1009.5
20260510025630 49 110 0.9 2.6 0.00 0.37 0.37 96 1009.2
20260510025127 49 113 2.6 2.6 0.00 0.37 0.37 96 1009.2
20260510024623 49 131 1.7 2.6 0.00 0.37 0.37 96 1009.0
20260510024120 49 132 0.0 2.6 0.00 0.37 0.37 96 1009.0
20260510023616 49 141 1.7 5.2 0.00 0.37 0.37 96 1008.8
20260510023114 49 149 4.3 5.2 0.00 0.37 0.37 96 1008.5
20260510022613 49 166 1.7 2.6 0.00 0.37 0.37 96 1008.5
20260510022108 49 150 0.9 2.6 0.00 0.37 0.37 96 1008.5
20260510021604 49 127 2.6 3.5 0.00 0.37 0.37 96 1008.5
20260510021102 49 152 1.7 2.6 0.00 0.37 0.37 96 1008.6
20260510020556 49 146 2.6 4.3 0.00 0.37 0.37 96 1008.5
20260510020052 49 166 0.0 2.6 0.00 0.37 0.37 96 1008.4
20260510015548 49 125 2.6 3.5 0.00 0.37 0.37 96 1008.7
20260510015044 49 118 1.7 2.6 0.00 0.37 0.37 96 1008.4
20260510014540 49 127 0.0 2.6 0.00 0.37 0.37 96 1008.3
20260510014038 49 132 1.7 3.5 0.00 0.37 0.37 96 1008.3
20260510013532 49 121 0.9 1.7 0.00 0.37 0.37 96 1008.0
20260510013028 50 130 2.6 3.5 0.00 0.37 0.37 96 1008.3
20260510012528 50 140 2.6 4.3 0.00 0.37 0.37 96 1008.4
20260510012025 50 126 1.7 4.3 0.00 0.37 0.37 96 1008.1
20260510011524 50 140 1.7 6.1 0.00 0.37 0.37 96 1008.1
20260510011020 50 204 0.9 2.6 0.00 0.37 0.37 96 1008.2
20260510010518 50 158 0.9 1.7 0.00 0.37 0.37 96 1008.0
20260510010014 50 310 0.9 3.5 0.00 0.37 0.37 96 1008.0
20260510005510 50 135 0.0 2.6 0.00 0.37 0.37 96 1007.9
20260510005008 50 129 1.7 2.6 0.00 0.37 0.37 96 1007.9
20260510004505 50 99 0.9 1.7 0.00 0.37 0.37 96 1008.1
20260510004003 50 103 0.0 1.7 0.00 0.37 0.37 96 1007.7
20260510003459 50 155 2.6 3.5 0.00 0.37 0.37 96 1007.8
20260510002955 50 158 2.6 3.5 0.00 0.37 0.37 96 1007.6
20260510002451 51 133 0.9 2.6 0.00 0.37 0.37 96 1007.6
20260510001948 51 159 1.7 2.6 0.00 0.37 0.37 96 1007.7
20260510001445 51 132 2.6 5.2 0.00 0.37 0.37 96 1007.3
20260510000943 51 106 1.7 4.3 0.00 0.37 0.37 96 1007.7
20260510000440 51 148 2.6 4.3 0.00 0.37 0.37 96 1007.7
20260509235935 51 173 1.7 4.3 0.00 0.37 0.37 96 1007.4
20260509235432 51 120 1.7 2.6 0.00 0.37 0.37 95 1007.4
20260509234928 52 126 1.7 3.5 0.00 0.37 0.37 95 1007.3
20260509234425 52 119 1.7 4.3 0.00 0.37 0.37 94 1007.5
20260509233923 52 120 0.0 5.2 0.00 0.37 0.37 94 1007.5
20260509233421 53 123 0.0 2.6 0.00 0.37 0.37 93 1007.3
20260509232916 53 147 2.6 5.2 0.00 0.37 0.37 92 1007.2
20260509232414 53 120 1.7 4.3 0.00 0.37 0.37 91 1007.2
20260509231910 54 148 1.7 4.3 0.00 0.37 0.37 91 1007.2
20260509231407 54 127 0.9 6.1 0.00 0.37 0.37 90 1007.3
20260509230905 54 199 1.7 7.0 0.00 0.37 0.37 90 1007.2
20260509230401 55 117 2.6 4.3 0.00 0.37 0.37 91 1007.3
20260509225857 54 123 1.7 3.5 0.00 0.37 0.37 92 1007.4
20260509225354 54 154 1.7 3.5 0.00 0.37 0.37 92 1007.4
20260509224849 54 137 5.2 6.1 0.00 0.37 0.37 92 1007.3
20260509224346 54 125 1.7 8.7 0.00 0.37 0.37 91 1007.5
20260509223843 53 130 1.7 4.3 0.00 0.37 0.37 94 1007.6
20260509223340 53 247 4.3 4.3 0.00 0.37 0.37 94 1007.7
20260509222837 53 214 0.9 4.3 0.00 0.37 0.37 94 1007.5
20260509222332 53 180 0.0 3.5 0.00 0.37 0.37 94 1007.4
20260509221827 53 209 2.6 3.5 0.00 0.37 0.37 94 1007.3
20260509221325 53 213 1.7 4.3 0.00 0.37 0.37 94 1007.2
20260509220825 53 178 3.5 5.2 0.00 0.37 0.37 94 1007.1
20260509220321 53 229 6.1 6.1 0.00 0.37 0.37 94 1007.2
20260509215817 52 139 5.2 7.8 0.00 0.37 0.37 95 1007.4
20260509215314 52 133 1.7 7.0 0.00 0.37 0.37 95 1007.4
20260509214811 52 116 0.9 7.0 0.00 0.37 0.37 96 1007.3
20260509214308 52 178 4.3 6.1 0.00 0.37 0.37 96 1007.4
20260509213805 53 220 0.9 2.6 0.00 0.37 0.37 96 1007.3
20260509213301 52 237 5.2 5.2 0.00 0.37 0.37 96 1007.5
20260509212758 52 116 1.7 4.3 0.00 0.37 0.37 96 1007.4
20260509212255 52 131 2.6 6.1 0.00 0.37 0.37 96 1007.7
20260509211751 52 145 1.7 4.3 0.00 0.37 0.37 96 1007.5
20260509211248 52 202 0.9 4.3 0.00 0.37 0.37 96 1007.6
20260509210744 52 236 3.5 5.2 0.00 0.37 0.37 96 1007.7
20260509210242 52 128 0.9 4.3 0.00 0.37 0.37 96 1007.9
20260509205741 51 141 3.5 6.1 0.00 0.37 0.37 96 1007.9
20260509205236 51 192 1.7 6.1 0.02 0.37 0.37 96 1008.0
20260509204732 51 189 1.7 5.2 0.02 0.37 0.37 96 1007.9
20260509204229 51 237 1.7 4.3 0.00 0.37 0.37 96 1008.0
20260509203725 51 187 1.7 6.1 0.00 0.37 0.37 96 1008.1
20260509203223 51 217 2.6 4.3 0.00 0.37 0.37 96 1008.1
20260509202719 51 125 2.6 4.3 0.00 0.37 0.37 96 1008.2
20260509202214 50 134 1.7 4.3 0.00 0.37 0.37 96 1008.1
20260509201709 50 213 2.6 4.3 0.00 0.37 0.37 96 1008.3
20260509201206 50 183 0.9 2.6 0.00 0.37 0.37 96 1008.2
20260509200703 50 198 1.7 4.3 0.02 0.37 0.37 96 1008.2
20260509200157 50 168 2.6 3.5 0.00 0.37 0.37 96 1008.3
20260509195654 50 133 3.5 5.2 0.00 0.37 0.37 96 1008.5
20260509195149 50 83 1.7 2.6 0.02 0.37 0.37 96 1008.3
20260509194643 50 132 1.7 6.1 0.02 0.37 0.37 96 1008.5
20260509194140 50 98 0.0 4.3 0.00 0.36 0.36 96 1008.3
20260509193636 50 163 2.6 9.6 0.02 0.36 0.36 96 1008.4
20260509193132 50 131 7.0 7.0 0.02 0.36 0.36 96 1008.6
20260509192629 50 105 1.7 2.6 0.02 0.36 0.36 96 1008.6
20260509192123 50 212 1.7 3.5 0.02 0.36 0.36 96 1008.6
20260509191618 50 190 0.0 4.3 0.02 0.35 0.35 96 1008.7
20260509191115 50 137 2.6 4.3 0.02 0.35 0.35 96 1008.6
20260509190611 50 151 0.9 6.1 0.00 0.35 0.35 96 1008.7
20260509190109 50 154 1.7 4.3 0.02 0.35 0.35 96 1008.9
20260509185606 50 154 1.7 5.2 0.00 0.35 0.35 96 1008.8
20260509185102 50 144 1.7 6.1 0.00 0.35 0.35 96 1008.8
20260509184601 50 151 2.6 3.5 0.02 0.35 0.35 96 1008.7
20260509184057 50 186 2.6 4.3 0.02 0.35 0.35 96 1008.9
20260509183552 50 120 2.6 4.3 0.00 0.34 0.34 96 1008.9
20260509183048 50 156 1.7 4.3 0.00 0.34 0.34 96 1008.7
20260509182545 50 237 2.6 4.3 0.00 0.34 0.34 96 1008.8
20260509182042 50 152 3.5 6.1 0.00 0.34 0.34 96 1008.5
20260509181540 50 159 3.5 6.1 0.00 0.34 0.34 95 1008.6
20260509181037 50 202 2.6 8.7 0.00 0.34 0.34 95 1008.7
20260509180532 50 123 0.9 5.2 0.00 0.34 0.34 95 1008.6
20260509180030 50 184 3.5 7.8 0.00 0.34 0.34 96 1008.7
20260509175525 50 139 2.6 9.6 0.00 0.34 0.34 96 1008.6
20260509175023 50 201 4.3 7.0 0.00 0.34 0.34 96 1008.7
20260509174519 50 166 0.0 2.6 0.00 0.34 0.34 96 1008.7
20260509174014 50 140 1.7 3.5 0.02 0.34 0.34 96 1008.5
20260509173509 50 155 2.6 4.3 0.02 0.34 0.34 96 1008.7
20260509173005 50 110 2.6 3.5 0.00 0.34 0.34 96 1008.8
20260509172502 50 186 1.7 6.1 0.00 0.34 0.34 96 1008.6
20260509171958 49 223 2.6 5.2 0.00 0.34 0.34 96 1008.7
20260509171454 49 234 3.5 5.2 0.00 0.34 0.34 96 1008.6
20260509170951 49 185 3.5 6.1 0.00 0.34 0.34 96 1008.8
20260509170446 49 237 1.7 2.6 0.00 0.34 0.34 96 1008.7
20260509165942 49 92 0.0 6.1 0.00 0.34 0.34 96 1008.6
20260509165442 49 124 6.1 6.1 0.00 0.34 0.34 96 1008.6
20260509164937 49 233 2.6 4.3 0.00 0.34 0.34 96 1008.8
20260509164433 49 207 0.0 3.5 0.00 0.34 0.34 96 1009.0
20260509163929 49 204 1.7 4.3 0.00 0.34 0.34 96 1008.7
20260509163427 49 150 4.3 5.2 0.02 0.34 0.34 96 1008.8
20260509162926 49 140 1.7 11.3 0.00 0.34 0.34 96 1008.9
20260509162425 49 137 6.1 7.0 0.00 0.34 0.34 96 1008.8
20260509161920 49 147 1.7 2.6 0.00 0.34 0.34 96 1009.1
20260509161417 49 133 1.7 6.1 0.00 0.34 0.34 96 1008.8
20260509160913 50 252 1.7 4.3 0.00 0.34 0.34 96 1009.0
20260509160408 49 166 2.6 9.6 0.02 0.34 0.34 96 1009.1
20260509155903 49 190 1.7 7.8 0.02 0.34 0.34 96 1009.2
20260509155401 49 122 1.7 4.3 0.02 0.33 0.33 96 1009.1
20260509154857 49 140 3.5 7.0 0.05 0.33 0.33 96 1009.2
20260509154353 49 180 0.0 6.1 0.02 0.33 0.33 96 1009.2
20260509153850 50 105 1.7 5.2 0.02 0.32 0.32 96 1009.2
20260509153347 49 152 4.3 8.7 0.05 0.32 0.32 96 1009.3
20260509152844 50 134 0.0 3.5 0.02 0.32 0.32 96 1009.1
20260509152340 49 99 0.0 6.1 0.02 0.32 0.32 96 1009.3
20260509151838 49 199 3.5 5.2 0.02 0.31 0.31 96 1009.3
20260509151333 49 123 7.8 7.8 0.05 0.31 0.31 96 1009.6
20260509150832 49 105 1.7 7.8 0.05 0.31 0.31 96 1009.6
20260509150329 49 165 1.7 6.1 0.05 0.30 0.30 96 1009.7
20260509145826 49 152 0.9 5.2 0.05 0.30 0.30 96 1009.7
20260509145321 48 159 2.6 3.5 0.05 0.29 0.29 96 1009.7
20260509144818 48 145 2.6 6.1 0.05 0.29 0.29 96 1009.9
20260509144315 48 160 2.6 4.3 0.02 0.29 0.29 96 1009.8
20260509143812 48 124 1.7 3.5 0.02 0.28 0.28 96 1009.8
20260509143309 48 147 1.7 7.8 0.05 0.28 0.28 96 1010.1
20260509142805 48 127 2.6 6.1 0.05 0.28 0.28 96 1009.7
20260509142302 48 155 2.6 5.2 0.05 0.27 0.27 96 1009.9
20260509141757 48 117 1.7 4.3 0.05 0.27 0.27 96 1010.0
20260509141254 48 176 0.9 5.2 0.02 0.26 0.26 96 1009.9
20260509140751 48 189 0.9 6.1 0.02 0.26 0.26 96 1009.6
20260509140248 48 142 0.0 3.5 0.05 0.26 0.26 96 1010.0
20260509135746 48 224 0.0 5.2 0.05 0.26 0.26 96 1009.8
20260509135243 47 139 1.7 6.1 0.07 0.25 0.25 96 1009.9
20260509134740 48 112 2.6 5.2 0.07 0.25 0.25 96 1009.9
20260509134238 48 137 1.7 3.5 0.05 0.24 0.24 96 1009.9
20260509133735 48 126 2.6 5.2 0.07 0.24 0.24 96 1010.0
20260509133231 48 144 2.6 4.3 0.05 0.23 0.23 96 1010.2
20260509132730 47 122 0.9 3.5 0.05 0.23 0.23 96 1009.7
20260509132228 47 76 0.0 3.5 0.05 0.22 0.22 96 1009.9
20260509131725 47 64 0.9 3.5 0.05 0.22 0.22 96 1010.1
20260509131221 47 125 2.6 3.5 0.07 0.21 0.21 96 1010.1
20260509130717 47 194 0.0 2.6 0.07 0.21 0.21 96 1010.1
20260509130213 47 170 0.9 2.6 0.07 0.20 0.20 96 1010.1
20260509125710 47 99 1.7 4.3 0.07 0.20 0.20 96 1010.2
20260509125207 47 145 1.7 5.2 0.02 0.19 0.19 96 1010.2
20260509124703 47 100 2.6 2.6 0.05 0.18 0.18 96 1010.1
20260509124200 47 142 6.1 6.1 0.05 0.18 0.18 96 1010.3
20260509123658 47 110 1.7 2.6 0.07 0.18 0.18 96 1010.2
20260509123155 47 164 2.6 4.3 0.05 0.17 0.17 96 1010.3
20260509122650 47 158 1.7 4.3 0.07 0.17 0.17 96 1010.1
20260509122148 46 139 3.5 5.2 0.05 0.16 0.16 96 1010.1
20260509121644 46 212 2.6 4.3 0.05 0.16 0.16 96 1010.3
20260509121142 46 132 0.0 2.6 0.05 0.15 0.15 96 1010.3
20260509120640 46 131 2.6 4.3 0.05 0.15 0.15 96 1010.3
20260509120138 46 127 1.7 4.3 0.05 0.14 0.14 96 1010.3
20260509115635 46 112 0.9 3.5 0.05 0.14 0.14 96 1010.4
20260509115132 46 129 1.7 2.6 0.07 0.13 0.13 96 1010.5
20260509114631 46 120 2.6 5.2 0.05 0.13 0.13 96 1010.4
20260509114129 46 133 2.6 3.5 0.05 0.12 0.12 96 1010.5
20260509113627 46 111 2.6 4.3 0.05 0.12 0.12 96 1010.3
20260509113124 46 107 2.6 4.3 0.05 0.11 0.11 96 1010.6
20260509112620 46 110 2.6 3.5 0.07 0.11 0.11 96 1010.6
20260509112118 46 121 0.0 2.6 0.07 0.11 0.11 96 1010.5
20260509111615 46 175 0.0 0.9 0.07 0.10 0.10 96 1010.4
20260509111111 46 189 2.6 6.1 0.07 0.09 0.09 96 1010.3
20260509110609 46 145 2.6 4.3 0.07 0.09 0.09 96 1010.4
20260509110106 46 117 0.0 2.6 0.07 0.08 0.08 96 1010.2
20260509105604 46 98 1.7 4.3 0.05 0.07 0.07 96 1010.1